Regional Weather Roundup
Issued by NWS

Home | Current Version | Previous Version | Graphics & Text | Print | Product List | Glossary On
Versions: 1 2 3 4 5 6 7 8 9 10 11 12 13 14 15 16 17 18 19 20 21 22 23 24 25 26 27 28 29 30 31 32 33 34 35 36 37 38 39 40 41 42 43 44 45 46 47 48 49 50
000
ASUS43 KBIS 211659
RWRND

NORTH DAKOTA REGIONAL WEATHER ROUNDUP
NATIONAL WEATHER SERVICE BISMARCK ND
1200 PM CDT THU AUG 21 2014

NOTE: "FAIR" INDICATES FEW OR NO CLOUDS BELOW 12,000 FEET WITH NO
SIGNIFICANT WEATHER AND/OR OBSTRUCTIONS TO VISIBILITY.


NDZ001>003-009>011-017-211800-
NORTHWEST NORTH DAKOTA

CITY           SKY/WX    TMP DP  RH WIND       PRES   REMARKS
WILLISTON      CLOUDY    67  59  75 N10       29.94R
MINOT          CLOUDY    70  63  78 NW9       29.86R
$$

NDZ018>021-031>035-040>046-211800-
SOUTHWEST NORTH DAKOTA

CITY           SKY/WX    TMP DP  RH WIND       PRES   REMARKS
BISMARCK       PTSUNNY   76  65  68 NW13      29.86S
GARRISON         N/A     74  65  73 NW14      29.86S
HETTINGER ARPT MOSUNNY   75  62  64 NW9       29.94S
$$

NDZ004>008-012>016-024-026-027-054-211800-
NORTHEAST NORTH DAKOTA

CITY           SKY/WX    TMP DP  RH WIND       PRES   REMARKS
GRAND FORKS    CLOUDY    75  67  76 S6        29.77R
GRND FRKS AFB  CLOUDY    73  72  94 SE5       29.78S
DEVILS LAKE    CLOUDY    72  64  78 CALM      29.78R
$$

NDZ022-023-025-028>030-036>039-047>053-211800-
SOUTHEAST NORTH DAKOTA

CITY           SKY/WX    TMP DP  RH WIND       PRES   REMARKS
FARGO          CLOUDY    73  68  84 E6        29.76S
$$




USA.gov is the U.S. government's official web portal to all federal, state and local government web resources and services.